Change the Weather History Date:

Wednesday, May 7, 2014

  Actual Average Record
Temperature  
Mean Temperature 51 °F 52 °F  
Max Temperature 57 °F 58 °F 74 °F (1987)
Min Temperature 45 °F 46 °F 35 °F (1929)
Degree Days  
Heating Degree Days 14 13  
Month to date heating degree days 65 95  
Since 1 July heating degree days 3698 4281  
Cooling Degree Days 0 0  
Month to date cooling degree days 2 0  
Year to date cooling degree days 10 0  
Moisture  
Dew Point 46 °F    
Average Humidity 83    
Maximum Humidity 0    
Minimum Humidity 0    
Precipitation  
Precipitation 0.00 in 0.12 in 2.16 in (1991)
Month to date precipitation 0.46 0.84  
Year to date precipitation 20.08 31.62  
Sea Level Pressure  
Sea Level Pressure 30.05 in    
Wind  
Wind Speed 6 mph (South)    
Max Wind Speed 13 mph    
Max Gust Speed -    
Visibility 10 miles    
Events      
T = Trace of Precipitation, MM = Missing Value Source: NWS Daily Summary

Daily Weather History Graph

Daily Weather History Graph

Search for Another Location

Airport or City:

Trip Planner

Search our weather history database for the weather conditions in past years. The results will help you decide how hot, cold, wet, or windy it might be!

Date:

Astronomy

May. 07, 2014 Rise Set
Actual Time 6:01 AM PDT 8:25 PM PDT
Civil Twilight 5:29 AM PDT 8:58 PM PDT
Nautical Twilight 4:50 AM PDT 9:38 PM PDT
Astronomical Twilight 4:05 AM PDT 10:22 PM PDT
Moon 1:24 PM PDT (5/7) 2:16 AM PDT (5/7)
Length of Visible Light 15h 28m
Length of Day
14h 24m
First Quarter, 56% of the Moon is Illuminated
May 7
First Quarter
May 14
Full
May 21
Last Quarter
May 28
New
Jun 5
First Quarter

Hourly Weather History & Observations

Time (PDT) Temp. Windchill Dew Point Humidity Pressure Visibility Wind Dir Wind Speed Gust Speed Precip Events Conditions
12:15 AM 46.4 °F 42.9 °F 44.6 °F 93% 30.10 in 6.0 mi SE 6.9 mph - N/A   Scattered Clouds
12:35 AM 46.4 °F 42.9 °F 44.6 °F 93% 30.10 in 9.0 mi SE 6.9 mph - N/A   Partly Cloudy
12:55 AM 46.4 °F 42.9 °F 44.6 °F 93% 30.09 in 9.0 mi SE 6.9 mph - N/A   Partly Cloudy
1:15 AM 46.4 °F 43.5 °F 46.4 °F 100% 30.09 in 9.0 mi SSE 5.8 mph - N/A   Clear
1:35 AM 46.4 °F 45.2 °F 46.4 °F 100% 30.09 in 5.0 mi SSE 3.5 mph - N/A   Clear
1:55 AM 44.6 °F 42.2 °F 44.6 °F 100% 30.09 in 7.0 mi SE 4.6 mph - N/A   Clear
2:15 AM 44.6 °F 40.7 °F 44.6 °F 100% 30.09 in 7.0 mi SE 6.9 mph - N/A   Clear
2:35 AM 44.6 °F 42.2 °F 42.8 °F 93% 30.10 in 10.0 mi SE 4.6 mph - N/A   Clear
2:55 AM 44.6 °F 41.4 °F 44.6 °F 100% 30.10 in 10.0 mi SSE 5.8 mph - N/A   Partly Cloudy
3:15 AM 44.6 °F 40.2 °F 42.8 °F 93% 30.10 in 10.0 mi SE 8.1 mph - N/A   Scattered Clouds
3:35 AM 44.6 °F 40.7 °F 42.8 °F 93% 30.10 in 10.0 mi SE 6.9 mph - N/A   Mostly Cloudy
3:55 AM 44.6 °F 40.7 °F 44.6 °F 100% 30.09 in 10.0 mi SE 6.9 mph - N/A   Mostly Cloudy
4:15 AM 44.6 °F 40.7 °F 44.6 °F 100% 30.08 in 10.0 mi SE 6.9 mph - N/A   Overcast
4:35 AM 44.6 °F 40.2 °F 42.8 °F 93% 30.08 in 10.0 mi SE 8.1 mph - N/A   Overcast
4:55 AM 44.6 °F 40.7 °F 42.8 °F 93% 30.07 in 10.0 mi SSE 6.9 mph - N/A   Overcast
5:15 AM 44.6 °F 41.4 °F 44.6 °F 100% 30.07 in 10.0 mi SE 5.8 mph - N/A   Overcast
5:35 AM 44.6 °F 40.7 °F 44.6 °F 100% 30.06 in 10.0 mi SSE 6.9 mph - N/A   Overcast
5:55 AM 44.6 °F 41.4 °F 42.8 °F 93% 30.06 in 10.0 mi SE 5.8 mph - N/A   Overcast
6:15 AM 46.4 °F 42.4 °F 44.6 °F 93% 30.06 in 10.0 mi SSE 8.1 mph - N/A   Overcast
6:35 AM 46.4 °F 43.5 °F 44.6 °F 93% 30.07 in 10.0 mi SSE 5.8 mph - N/A   Overcast
6:55 AM 46.4 °F 42.9 °F 44.6 °F 93% 30.07 in 10.0 mi SE 6.9 mph - N/A   Overcast
7:15 AM 46.4 °F 42.9 °F 44.6 °F 93% 30.07 in 10.0 mi SSE 6.9 mph - N/A   Overcast
7:35 AM 46.4 °F - 44.6 °F 93% 30.07 in 10.0 mi Calm Calm - N/A   Overcast
7:55 AM 46.4 °F - 46.4 °F 100% 30.07 in 10.0 mi North - - N/A   Overcast
8:15 AM 48.2 °F - 46.4 °F 93% 30.07 in 10.0 mi SE 5.8 mph - N/A   Overcast
8:35 AM 48.2 °F - 46.4 °F 93% 30.08 in 10.0 mi SE 5.8 mph - N/A   Overcast
8:55 AM 50.0 °F - 46.4 °F 87% 30.08 in 10.0 mi SSE 4.6 mph - N/A   Overcast
9:15 AM 51.8 °F - 46.4 °F 82% 30.08 in 10.0 mi SE 4.6 mph - N/A   Overcast
9:35 AM 51.8 °F - 46.4 °F 82% 30.08 in 6.0 mi SE 4.6 mph - N/A   Overcast
10:15 AM 53.6 °F - 44.6 °F 72% 30.08 in 9.0 mi Calm Calm - N/A   Overcast
10:35 AM 55.4 °F - 42.8 °F 63% 30.07 in 10.0 mi Calm Calm - N/A   Overcast
10:55 AM 55.4 °F - 44.6 °F 67% 30.07 in 10.0 mi Calm Calm - N/A   Mostly Cloudy
11:15 AM 55.4 °F - 44.6 °F 67% 30.06 in 10.0 mi Calm Calm - N/A   Mostly Cloudy
11:35 AM 55.4 °F - 44.6 °F 67% 30.06 in 10.0 mi NW 3.5 mph - N/A   Clear
11:55 AM 57.2 °F - 44.6 °F 63% 30.05 in 10.0 mi WNW 6.9 mph - N/A   Scattered Clouds
12:15 PM 57.2 °F - 46.4 °F 67% 30.05 in 10.0 mi NW 6.9 mph - N/A   Overcast
12:35 PM 57.2 °F - 44.6 °F 63% 30.05 in 10.0 mi NW 10.4 mph - N/A   Scattered Clouds
12:55 PM 57.2 °F - 44.6 °F 63% 30.04 in 10.0 mi WNW 11.5 mph - N/A   Clear
1:15 PM 57.2 °F - 48.2 °F 72% 30.05 in 10.0 mi West 15.0 mph - N/A   Clear
1:35 PM 57.2 °F - 48.2 °F 72% 30.05 in 10.0 mi WNW 13.8 mph - N/A   Clear
1:55 PM 57.2 °F - 48.2 °F 72% 30.04 in 10.0 mi WNW 12.7 mph - N/A   Clear
2:15 PM 57.2 °F - 48.2 °F 72% 30.04 in 10.0 mi West 12.7 mph - N/A   Clear
2:35 PM 57.2 °F - 48.2 °F 72% 30.04 in 10.0 mi WNW 12.7 mph - N/A   Clear
2:55 PM 57.2 °F - 48.2 °F 72% 30.04 in 10.0 mi NW 10.4 mph - N/A   Clear
3:15 PM 57.2 °F - 46.4 °F 67% 30.04 in 10.0 mi NW 9.2 mph - N/A   Clear
3:35 PM 57.2 °F - 46.4 °F 67% 30.04 in 10.0 mi WNW 8.1 mph - N/A   Clear
3:55 PM 57.2 °F - 46.4 °F 67% 30.03 in 10.0 mi West 8.1 mph - N/A   Clear
4:15 PM 55.4 °F - 46.4 °F 72% 30.03 in 10.0 mi West 9.2 mph - N/A   Clear
4:35 PM 55.4 °F - 48.2 °F 77% 30.03 in 10.0 mi West 8.1 mph - N/A   Clear
4:55 PM 55.4 °F - 48.2 °F 77% 30.03 in 10.0 mi WNW 6.9 mph - N/A   Clear
5:15 PM 55.4 °F - 48.2 °F 77% 30.03 in 10.0 mi West 6.9 mph - N/A   Clear
5:35 PM 55.4 °F - 48.2 °F 77% 30.03 in 10.0 mi West 5.8 mph - N/A   Clear
5:55 PM 53.6 °F - 46.4 °F 77% 30.03 in 10.0 mi West 5.8 mph - N/A   Clear
6:15 PM 55.4 °F - 48.2 °F 77% 30.03 in 10.0 mi West 8.1 mph - N/A   Scattered Clouds
6:35 PM 53.6 °F - 48.2 °F 82% 30.02 in 10.0 mi West 4.6 mph - N/A   Scattered Clouds
6:55 PM 53.6 °F - 46.4 °F 77% 30.02 in 10.0 mi WSW 6.9 mph - N/A   Partly Cloudy
7:15 PM 53.6 °F - 48.2 °F 82% 30.02 in 10.0 mi WSW 5.8 mph - N/A   Scattered Clouds
7:35 PM 53.6 °F - 46.4 °F 77% 30.02 in 10.0 mi SW 6.9 mph - N/A   Mostly Cloudy
7:55 PM 53.6 °F - 46.4 °F 77% 30.01 in 10.0 mi SW 5.8 mph - N/A   Mostly Cloudy
8:15 PM 53.6 °F - 46.4 °F 77% 30.01 in 10.0 mi SSW 5.8 mph - N/A   Scattered Clouds
8:35 PM 53.6 °F - 46.4 °F 77% 30.01 in 10.0 mi South 3.5 mph - N/A   Partly Cloudy
8:55 PM 51.8 °F - 46.4 °F 82% 30.00 in 10.0 mi South 4.6 mph - N/A   Partly Cloudy
9:15 PM 51.8 °F - 46.4 °F 82% 30.00 in 10.0 mi South 4.6 mph - N/A   Scattered Clouds
9:35 PM 51.8 °F - 46.4 °F 82% 29.99 in 10.0 mi South 5.8 mph - N/A   Scattered Clouds
9:55 PM 51.8 °F - 46.4 °F 82% 29.99 in 10.0 mi South 5.8 mph - N/A   Partly Cloudy
10:15 PM 51.8 °F - 46.4 °F 82% 29.99 in 10.0 mi SSE 5.8 mph - N/A   Mostly Cloudy
10:35 PM 51.8 °F - 48.2 °F 88% 29.99 in 10.0 mi South 8.1 mph - N/A   Overcast
10:55 PM 51.8 °F - 48.2 °F 88% 29.98 in 10.0 mi South 6.9 mph - N/A   Overcast
11:15 PM 51.8 °F - 48.2 °F 88% 29.97 in 10.0 mi South 6.9 mph - N/A   Mostly Cloudy
11:35 PM 51.8 °F - 48.2 °F 88% 29.97 in 10.0 mi South 4.6 mph - N/A   Overcast
11:55 PM 51.8 °F - 48.2 °F 88% 29.97 in 10.0 mi South 3.5 mph - N/A   Overcast